RH
2 3 4 6 7 6 6 6 6 6 6 6 6 6 6 6 6 6 7 7 7 7 8 8 7 7 7 6 6 6 6 7 7 8 8 9 10 10 11 12 13 13 14 14 14 15 15 15 16 16 16 17 17 16 17 17 16 17 17 17 17 17 17 17 17 17 17 18 18 18 18 19 19 20 21 20 19 18 16 15 12 11 10 9 8
4 4 5 7 6 6 6 6 6 6 6 6 6 6 6 6 6 6 7 7 8 8 8 8 7 7 6 6 6 7 7 7 8 9 10 11 13 13 14 14 14 14 14 14 13 14 14 14 15 16 16 18 18 18 19 19 19 19 19 20 19 19 20 19 19 20 20 20 20 19 19 20 19 19 21 22 23 22 21 19 18 16 14 12 11
4 5 6 7 6 6 6 6 6 6 6 6 6 6 6 6 7 7 8 8 9 9 8 8 7 7 7 7 7 7 7 8 9 11 13 15 16 16 16 15 15 14 14 14 15 16 17 17 18 19 20 21 22 22 23 24 26 27 28 29 28 28 27 26 25 27 27 26 26 26 25 26 24 22 21 21 24 26 24 23 22 21 19 17 15
5 6 7 6 6 6 5 5 5 5 5 5 5 5 6 6 7 8 8 9 9 8 8 8 8 8 7 7 8 8 10 11 13 15 17 17 17 17 16 16 16 17 19 21 23 25 25 26 26 25 25 25 25 25 25 26 27 30 32 34 36 36 37 36 34 35 37 36 36 37 36 36 35 33 30 26 26 27 27 27 26 25 24 22 20
7 7 6 6 6 6 5 5 5 5 5 5 5 5 6 6 6 7 8 8 8 8 8 8 7 8 8 9 11 12 14 17 18 19 19 18 17 17 18 20 23 25 27 29 29 29 28 28 28 28 27 26 27 27 27 25 24 26 27 28 29 31 34 36 35 36 40 44 46 46 46 46 46 44 42 40 36 32 33 33 31 31 29 27 25
7 7 7 6 6 6 6 5 5 6 6 6 6 6 6 7 7 7 8 8 8 8 8 8 8 9 11 13 16 19 21 21 21 19 19 20 22 24 26 27 29 29 30 29 29 29 29 28 30 32 32 31 32 32 34 33 30 29 28 28 28 27 28 30 32 33 36 42 48 50 52 55 53 52 52 51 47 42 40 40 39 39 37 34 31
8 7 7 6 6 7 6 6 7 7 7 8 8 8 8 8 8 8 9 9 9 9 9 9 11 14 16 20 23 24 24 22 21 23 25 27 28 28 27 25 24 24 24 24 26 30 34 37 40 43 47 48 48 48 50 50 48 46 44 44 45 41 36 35 37 38 38 39 41 45 57 65 63 61 61 58 54 50 47 45 45 46 45 43 40
8 7 7 7 7 7 7 8 8 8 9 10 10 10 10 10 9 10 10 10 10 10 10 12 16 19 23 27 27 25 23 24 27 29 29 27 24 22 20 18 16 16 17 18 20 24 32 38 43 50 58 64 65 66 66 66 67 66 61 61 64 62 58 56 57 57 55 52 44 40 55 72 72 71 73 68 61 56 51 49 48 47 47 48 47
8 8 8 8 7 7 7 8 9 10 11 11 12 12 11 11 11 10 10 10 10 10 13 17 20 25 30 29 25 24 27 30 29 27 23 19 17 15 13 12 11 9 10 11 12 14 19 25 30 37 46 54 58 61 61 63 68 69 66 65 66 70 72 74 76 78 77 74 66 58 66 80 82 81 85 83 75 65 57 54 55 53 49 49 49
9 9 8 8 8 8 8 8 11 12 13 14 14 13 14 14 13 12 11 11 11 12 16 20 26 33 32 25 24 27 29 28 23 19 16 14 12 10 8 6 6 5 4 5 6 6 8 10 13 17 23 28 34 37 38 43 52 58 60 62 64 71 77 81 87 94 94 91 86 81 84 92 93 89 91 92 85 76 66 59 59 60 55 53 52
9 9 9 9 8 8 8 10 12 14 16 16 15 16 16 16 15 15 15 14 15 17 19 27 34 34 26 23 27 28 25 21 17 16 13 10 8 5 5 4 3 3 3 3 3 3 4 4 5 6 7 9 12 14 15 20 29 37 45 52 59 67 74 78 85 91 97 99 97 92 92 97 99 96 95 95 88 81 74 65 60 60 56 55 58
9 9 9 9 9 9 9 10 13 15 17 17 18 19 18 18 19 18 18 19 19 21 28 37 36 27 24 27 27 23 19 17 15 13 9 6 5 4 3 3 3 3 3 3 3 3 4 4 4 4 4 4 4 5 5 6 10 15 21 30 41 56 70 81 88 89 92 98 100 98 96 97 99 100 99 97 91 84 79 71 64 64 58 52 57
8 9 9 10 9 9 10 12 14 16 17 18 19 19 18 19 20 20 22 22 22 29 39 39 29 24 27 27 22 18 16 14 11 8 6 4 3 3 3 3 3 4 3 4 4 4 4 4 4 4 4 4 4 4 4 4 4 4 6 10 17 30 46 63 79 87 87 88 91 94 96 96 98 100 99 96 93 88 85 80 75 75 68 57 55
7 8 9 10 10 11 12 13 15 17 18 19 19 18 19 20 22 24 24 25 32 41 41 31 25 27 27 21 17 16 13 10 7 5 4 3 3 3 3 3 4 4 4 4 4 4 4 4 4 4 4 4 4 4 4 3 4 3 4 4 7 16 30 47 68 86 91 90 92 95 98 99 100 101 100 97 95 92 92 93 89 87 80 68 62
8 9 9 11 11 12 14 16 18 19 19 19 19 19 19 23 25 26 28 36 45 42 31 26 29 27 20 16 15 12 9 6 5 4 3 3 3 3 4 4 4 4 4 4 4 4 5 4 4 4 4 4 4 4 3 3 4 4 5 4 6 21 43 63 82 95 99 99 99 100 101 101 100 101 101 101 100 98 98 99 97 92 85 76 69
9 10 12 14 15 17 18 19 20 20 19 19 19 20 24 27 28 32 43 49 43 30 26 29 27 20 16 15 12 8 6 4 3 3 3 3 4 4 4 4 4 5 5 5 5 5 5 4 4 4 4 4 4 4 3 4 4 4 6 5 7 23 48 73 91 97 97 97 96 96 98 99 100 100 100 100 101 101 101 100 96 88 81 75 69
9 11 14 16 19 21 21 20 20 19 19 20 21 25 28 30 37 48 53 43 30 27 31 28 20 16 15 12 8 5 4 3 3 4 4 4 4 4 5 5 5 5 5 5 5 5 5 5 4 4 4 4 4 4 4 4 5 5 6 6 8 21 41 62 77 82 82 82 82 84 89 95 99 100 100 101 100 101 102 98 90 81 73 68 65
10 11 14 16 18 19 19 18 19 19 21 23 26 30 34 42 54 56 42 29 28 32 28 20 16 15 11 7 5 4 3 3 4 4 4 5 5 5 5 5 5 5 5 5 5 5 5 5 5 4 5 4 4 4 4 5 6 6 6 8 14 25 39 51 58 63 67 72 78 86 92 97 100 100 100 101 101 101 100 95 85 75 67 63 59
12 13 15 16 16 17 18 19 20 22 24 27 32 38 47 58 58 43 29 29 34 29 20 16 14 11 7 5 4 3 4 4 4 4 5 5 5 6 6 5 6 6 6 6 5 5 5 5 5 5 5 5 5 5 5 6 7 8 8 11 18 28 39 49 57 64 73 82 91 97 99 99 100 100 100 101 102 102 101 98 90 78 68 62 56
15 16 17 18 19 19 20 22 23 26 29 34 41 52 61 60 44 30 30 35 30 21 16 14 10 7 5 4 3 4 4 4 5 5 5 6 6 6 6 6 6 6 6 6 6 6 6 5 5 5 5 5 5 5 6 8 9 12 13 16 20 27 37 50 62 71 80 89 96 99 100 100 100 100 100 101 102 101 101 101 95 84 72 64 56
18 19 20 21 22 22 23 25 28 31 36 44 55 64 62 46 31 31 36 32 22 16 13 10 7 5 4 3 4 4 4 5 6 6 6 6 6 6 7 7 6 7 7 6 7 6 6 6 6 6 6 6 6 6 7 9 11 14 18 22 27 32 40 51 63 73 83 90 95 96 97 97 98 99 99 98 98 98 98 97 92 84 76 66 58
21 21 22 22 23 24 26 30 33 37 46 57 66 65 51 34 31 37 34 24 16 12 9 6 5 4 4 4 4 4 5 6 6 7 7 7 7 7 7 7 7 7 7 7 7 7 7 7 7 7 7 7 7 7 8 10 12 16 21 27 33 39 46 54 63 72 82 89 91 92 93 92 92 93 93 92 91 91 90 89 86 82 77 69 61
24 23 22 23 25 28 32 34 38 47 58 68 69 56 39 33 38 38 27 18 13 9 6 5 4 4 4 4 5 5 6 7 7 7 7 7 7 8 8 8 8 8 8 8 8 8 8 8 8 8 8 8 8 8 10 11 14 18 23 29 36 43 49 55 61 67 74 80 83 86 88 89 89 88 87 86 85 85 83 82 80 78 74 69 63
25 24 24 27 30 33 36 39 47 59 68 71 62 45 35 38 40 31 20 14 10 7 5 5 4 4 4 5 6 7 7 7 8 8 8 8 8 8 8 9 9 9 9 9 9 9 9 9 9 9 8 9 9 9 11 14 18 22 26 31 36 41 46 50 55 59 64 67 70 72 76 80 82 82 81 81 80 79 78 78 77 75 72 69 66
26 27 29 32 35 38 41 48 58 67 73 69 53 39 38 42 35 23 15 11 7 5 5 4 4 4 5 6 6 7 8 8 8 8 9 9 9 9 10 10 10 10 10 10 10 10 10 10 10 10 10 10 10 11 13 15 20 24 28 32 36 40 43 47 50 52 55 57 58 61 65 69 72 73 73 74 75 74 73 73 73 73 72 71 69
29 32 35 38 42 45 50 58 66 72 73 64 47 40 43 40 27 16 12 8 6 5 4 4 4 5 5 6 7 8 8 9 9 9 9 9 10 10 10 11 11 11 11 11 12 11 11 12 11 11 11 11 11 12 14 16 20 23 27 32 36 39 42 44 46 48 49 52 54 56 59 63 66 68 70 72 73 74 73 72 73 74 75 74 73
34 37 40 44 48 53 58 65 71 74 71 58 45 45 43 31 19 13 10 7 5 5 4 4 5 5 6 7 8 9 9 9 10 10 10 10 11 11 12 12 12 13 13 13 13 13 13 13 13 13 13 13 13 13 14 17 19 22 25 30 33 36 39 42 46 49 51 52 54 56 58 61 65 67 70 73 76 77 78 77 77 78 79 79 77
38 40 44 48 51 56 62 69 73 75 68 54 47 47 37 23 15 11 7 5 5 4 4 5 5 6 7 8 9 9 10 10 10 11 11 12 12 13 13 14 14 14 15 15 15 15 15 15 15 15 14 14 15 15 15 16 18 20 23 27 30 31 33 37 42 47 51 53 55 58 59 63 67 70 73 76 79 82 84 84 84 84 84 84 83
39 41 44 47 50 56 64 71 76 74 63 52 50 43 28 17 13 9 6 5 5 4 5 5 6 7 8 8 9 10 10 11 11 12 12 13 13 14 15 15 16 16 16 17 17 17 17 17 17 16 17 16 16 16 17 17 18 20 22 24 27 27 28 32 36 40 45 49 54 59 63 68 72 74 77 80 82 85 87 87 88 90 90 88 87
39 41 43 46 49 55 64 73 78 72 59 53 49 35 21 14 11 7 5 5 5 5 5 6 7 7 8 9 10 11 11 12 12 13 13 14 15 16 17 17 18 18 19 19 19 19 19 19 19 19 19 19 18 19 19 19 19 20 21 23 24 24 25 27 30 34 38 44 51 57 64 71 75 77 80 82 83 85 86 87 89 91 92 91 89
39 41 43 45 48 54 65 77 78 69 59 54 43 26 16 12 8 6 5 5 5 5 6 6 7 8 9 10 10 11 12 13 13 14 15 16 17 18 19 20 20 21 22 22 22 23 22 22 22 22 21 21 21 21 21 22 22 22 22 23 23 23 24 25 27 30 34 40 48 55 63 72 76 78 80 81 82 83 84 85 87 89 90 90 88
40 41 43 45 48 56 70 80 78 67 59 50 34 19 13 10 6 5 5 5 5 6 6 7 8 9 10 10 11 12 13 14 14 16 17 18 19 20 21 22 23 24 24 25 25 26 26 26 26 25 25 25 24 24 24 24 24 25 26 26 25 24 23 23 24 26 28 32 39 45 53 62 71 77 79 80 82 83 84 84 84 85 86 87 87
41 42 44 46 49 59 75 82 77 67 58 43 24 14 11 8 6 5 5 5 6 6 7 8 8 10 10 11 12 13 14 15 16 17 19 20 21 22 23 24 26 26 27 28 29 29 30 30 30 30 30 29 29 29 28 28 28 28 29 29 29 28 27 26 26 27 28 30 32 37 42 48 58 69 75 77 80 82 84 83 82 82 81 81 83
43 44 46 47 50 64 80 83 76 66 52 33 18 12 10 6 6 6 5 6 6 6 8 8 9 10 11 12 13 14 15 16 18 19 21 22 23 24 26 27 28 29 30 31 32 33 33 34 34 34 34 34 34 33 33 33 32 31 32 32 32 31 30 30 30 30 32 33 35 38 40 42 47 55 64 72 78 80 81 82 82 81 80 80 81
45 46 46 46 53 71 85 84 77 64 45 25 14 11 8 6 6 6 5 6 7 7 9 9 10 11 12 13 14 15 16 18 19 21 23 24 25 27 28 30 31 32 33 34 35 36 37 38 38 38 38 39 39 39 38 38 37 36 36 35 35 34 33 33 33 33 34 37 40 42 43 45 46 47 53 62 71 75 76 77 78 79 79 81 81
46 46 45 48 62 80 89 86 76 59 36 20 13 10 7 6 6 6 6 7 7 8 9 10 11 12 12 14 15 16 18 19 21 23 24 26 27 29 30 32 33 35 36 37 38 39 40 42 42 42 43 43 44 44 43 43 42 42 41 40 39 39 38 37 37 37 37 38 41 44 47 49 49 48 52 58 66 70 69 68 70 73 75 77 78
46 46 47 57 74 88 92 85 72 51 30 17 11 8 7 6 6 6 7 7 8 9 10 10 12 13 13 15 16 17 19 21 23 25 26 28 29 31 32 33 34 36 37 38 39 40 42 43 44 46 46 47 48 50 49 48 48 47 47 46 46 45 44 44 43 42 42 41 42 45 48 50 49 50 55 61 68 71 69 65 65 68 70 72 73
48 49 55 70 85 93 93 83 65 43 25 14 10 8 6 6 6 6 7 8 9 10 11 11 12 13 15 16 18 19 21 23 25 26 27 29 31 32 33 34 35 36 38 39 39 41 43 44 45 47 48 48 51 54 55 54 53 53 53 52 51 50 50 50 49 48 47 46 45 45 47 49 49 50 56 63 69 73 73 70 68 69 68 67 68
52 56 67 82 93 97 92 78 57 36 20 12 9 7 6 6 6 7 7 9 10 10 11 12 13 15 16 17 19 21 23 25 26 27 29 30 32 33 34 35 36 37 39 41 42 43 44 46 47 49 50 50 51 54 57 57 56 58 59 59 58 57 56 56 56 54 53 52 50 49 49 50 50 50 54 59 66 74 77 74 74 75 71 67 68
58 66 79 91 98 99 90 73 51 31 18 12 8 7 7 6 7 8 8 9 10 11 12 13 14 16 17 19 21 23 24 25 26 28 30 31 32 34 35 36 38 40 41 43 45 45 46 49 51 53 55 55 54 54 57 59 58 59 62 64 63 61 61 62 61 61 59 57 56 55 54 54 55 55 54 55 62 72 79 78 76 72 67 64 70
67 77 89 97 101 99 88 68 46 29 18 11 8 7 7 7 7 8 9 10 11 12 13 14 15 17 18 20 22 24 25 26 27 28 30 32 33 35 36 37 39 40 42 44 45 45 46 49 54 56 58 61 59 57 58 62 62 61 64 66 64 63 65 66 65 65 65 64 62 62 60 59 60 60 60 61 63 69 78 84 82 74 67 69 76
76 87 96 100 101 98 85 64 43 27 17 11 8 7 7 7 8 9 9 10 11 12 13 15 16 18 20 21 23 24 26 27 28 30 31 33 35 35 35 36 37 38 40 42 43 43 42 44 51 56 60 63 64 61 61 65 68 68 67 67 66 65 66 68 66 64 66 67 67 67 66 66 67 66 65 66 66 67 74 81 82 81 83 88 92
85 94 99 100 101 96 81 61 41 26 16 11 8 7 7 7 8 9 10 11 12 13 14 15 17 19 21 22 23 25 27 28 30 31 32 33 34 34 34 34 34 35 37 38 39 39 37 38 43 50 57 62 63 62 63 67 71 74 74 72 70 69 69 69 67 65 65 67 69 71 73 73 73 73 72 72 71 72 75 77 80 90 98 99 98
92 99 100 100 101 93 77 58 40 25 16 11 7 7 8 8 9 10 11 11 12 13 14 16 18 20 21 23 25 27 29 30 31 31 31 31 32 33 33 33 33 33 33 32 33 33 34 35 38 43 50 56 58 60 65 69 71 74 78 79 76 75 75 75 72 69 68 69 70 75 79 79 79 79 79 78 77 76 76 77 82 91 95 92 90
97 100 100 101 100 90 73 54 38 24 15 10 7 7 8 8 9 10 11 12 13 14 15 17 19 20 22 23 25 28 30 31 30 30 29 29 30 30 30 31 31 31 31 31 32 35 37 39 41 42 45 49 53 56 62 68 70 71 76 81 82 81 81 81 79 76 75 76 77 81 84 84 85 85 84 83 82 80 80 81 84 89 92 91 92
100 100 100 101 98 85 68 50 35 23 15 9 7 8 8 9 9 10 11 12 13 14 16 18 19 20 22 24 26 28 30 30 29 28 27 27 28 28 29 30 31 31 32 34 37 41 43 44 46 47 46 48 51 54 58 65 68 66 69 77 83 84 86 86 84 82 83 84 85 86 86 85 86 87 88 88 87 86 87 87 88 92 95 98 99
100 100 100 101 95 80 63 47 33 22 14 9 8 8 9 9 10 11 11 13 14 15 16 18 20 21 23 24 26 28 30 30 30 29 27 27 27 27 28 30 32 34 36 40 44 47 49 50 50 50 50 50 51 53 58 63 65 63 64 69 74 78 83 87 88 89 91 90 89 87 86 86 87 89 92 94 94 95 95 95 96 97 98 101 103
100 100 100 100 91 76 59 44 31 20 14 10 8 8 9 9 10 11 12 13 15 16 18 20 21 22 24 26 27 29 30 30 30 30 30 29 29 29 29 31 35 38 41 46 50 52 54 55 54 53 53 53 52 54 59 63 65 65 66 66 67 70 77 85 93 97 97 93 91 89 87 87 88 89 91 94 97 100 102 102 103 103 103 104 105
100 100 101 98 88 72 56 40 27 19 14 10 8 9 9 9 10 11 13 15 16 17 19 21 23 25 27 28 29 30 30 30 30 31 31 31 32 32 32 33 38 45 50 54 56 57 57 59 59 58 59 58 55 56 60 63 65 68 69 68 67 69 73 81 92 100 101 97 96 95 93 92 93 93 94 97 98 100 101 101 102 103 104 104 104
100 100 100 96 84 68 51 35 24 19 15 11 9 9 9 9 10 12 13 16 18 20 22 24 25 27 29 30 30 31 30 30 30 30 31 32 34 36 38 40 45 52 57 61 62 63 64 65 65 65 66 65 62 61 61 59 60 63 65 66 66 67 67 69 76 86 90 89 90 92 93 94 97 99 100 100 101 101 102 102 102 102 102 102 101
100 101 100 94 80 63 45 30 21 18 15 11 10 10 11 10 10 12 14 17 20 22 24 26 27 30 31 31 31 32 31 31 32 32 32 33 35 40 48 55 59 62 65 68 70 73 76 78 78 77 76 74 73 71 68 64 61 60 63 67 70 70 68 67 71 76 76 74 78 85 89 90 92 95 95 96 99 102 103 105 104 103 103 102 101
Wind_Speed
18 17 17 16 17 17 17 17 17 18 18 19 20 21 22 23 24 25 25 25 25 26 26 27 28 29 30 30 31 33 34 35 36 37 39 40 41 42 43 43 44 44 45 45 45 45 46 46 46 47 47 48 49 50 51 52 53 53 54 54 55 55 56 56 55 55 55 55 55 54 54 54 53 52 52 52 52 52 52 52 52 52 52 52 52
19 18 18 17 18 18 18 18 18 19 20 21 22 22 24 25 25 26 26 26 26 27 28 29 30 31 32 33 34 35 36 38 39 40 41 41 42 42 43 44 45 45 46 47 47 47 47 48 48 49 49 50 51 52 53 54 55 55 56 57 57 58 58 58 58 58 58 58 58 58 57 57 57 56 54 53 53 53 53 54 54 54 54 54 54
19 19 18 19 19 19 19 19 20 21 22 22 23 23 24 25 25 26 26 26 27 29 30 31 33 33 34 35 37 38 40 41 42 43 42 42 42 42 43 43 44 45 46 47 47 48 49 49 50 51 51 52 53 54 55 55 56 57 57 58 59 60 60 61 60 59 60 60 60 60 59 59 59 59 59 56 54 54 54 55 55 55 55 55 55
20 19 20 20 21 21 21 21 21 21 22 22 23 23 23 24 25 25 26 28 29 31 33 34 35 35 36 38 40 42 44 44 43 43 42 42 43 43 43 43 44 45 46 47 48 49 50 51 52 53 54 54 55 56 57 57 57 57 58 58 59 60 61 62 62 61 60 61 61 60 60 60 59 60 60 59 58 56 55 55 55 55 55 55 56
20 20 21 23 23 23 23 22 22 21 21 22 23 23 24 25 26 27 28 30 32 33 34 35 36 37 40 42 44 45 45 45 43 42 42 42 43 43 43 43 45 46 47 49 50 51 52 53 54 55 56 57 57 58 59 60 60 60 60 61 61 61 61 62 62 62 60 59 59 60 60 60 60 60 60 60 60 59 57 56 56 56 56 56 56
21 22 24 25 25 25 25 23 21 21 22 24 24 25 26 27 28 29 30 31 33 34 35 36 38 40 43 45 45 45 45 44 43 42 42 42 43 43 44 44 45 47 48 50 51 53 54 55 56 57 58 59 60 60 61 62 62 63 63 63 63 64 63 63 63 63 62 60 58 58 58 59 59 60 59 59 60 61 61 58 56 56 56 56 57
23 24 26 28 28 27 25 22 22 23 24 25 26 26 27 28 30 31 32 33 34 35 36 38 41 43 44 45 45 45 44 43 42 42 43 43 44 45 46 46 47 48 50 51 53 54 55 56 57 58 59 60 61 61 62 63 63 64 64 64 64 65 65 65 64 63 63 63 61 59 57 57 58 58 58 57 58 60 61 61 59 56 56 56 57
25 26 28 30 30 27 24 23 23 24 25 25 26 27 28 30 32 33 33 34 35 37 38 41 43 44 45 45 45 43 43 42 43 43 44 44 45 47 48 49 50 51 52 53 54 55 55 56 58 59 59 60 61 62 63 63 64 64 65 65 65 66 66 66 65 64 64 64 63 62 59 58 58 58 57 57 57 57 58 59 59 58 56 55 56
26 27 29 30 29 27 26 25 24 24 25 26 27 28 31 33 34 36 36 37 38 39 41 43 44 45 45 44 43 42 42 43 44 44 45 46 48 49 51 51 53 53 53 54 54 55 56 57 58 59 60 61 62 62 63 64 64 65 65 66 66 66 66 66 65 65 65 64 63 63 62 61 60 59 58 57 56 57 57 56 55 56 56 54 53
26 27 29 30 29 29 28 26 25 25 25 26 29 32 35 37 37 38 39 40 40 41 43 44 45 45 44 43 42 42 43 43 44 46 47 49 50 51 52 52 52 52 52 51 52 52 53 55 56 57 58 60 61 62 63 64 65 66 66 67 67 67 66 67 66 65 65 64 63 62 63 63 63 62 60 58 57 57 57 56 54 53 54 52 52
26 27 29 30 31 30 29 27 26 26 27 29 32 35 37 38 39 39 41 41 42 43 44 45 45 44 43 42 42 43 44 45 46 48 50 51 51 51 50 50 49 49 49 49 49 49 50 52 53 54 55 57 59 61 62 63 65 66 67 68 68 68 67 67 67 67 66 64 63 63 63 63 63 63 62 60 58 57 56 56 55 54 54 52 50
26 28 30 31 32 32 30 29 28 29 30 32 35 37 39 39 40 41 42 42 44 45 46 46 45 43 42 43 43 44 45 47 49 51 51 51 51 49 48 47 46 47 47 48 48 47 48 49 50 52 53 55 57 59 60 62 63 65 67 68 69 69 68 68 67 67 66 65 64 63 63 62 61 59 59 59 58 56 54 54 54 54 55 53 50
26 27 29 32 33 34 32 31 31 32 33 35 38 40 41 41 41 42 42 43 44 46 46 46 44 43 43 43 44 45 47 49 51 51 51 50 48 47 46 46 46 46 47 48 48 46 46 47 49 50 52 53 55 57 58 60 61 63 65 66 67 68 68 68 67 66 66 65 64 64 63 62 60 57 56 56 55 53 52 52 52 53 54 54 52
27 27 29 32 34 35 34 33 33 34 35 38 40 42 43 42 41 42 43 44 45 47 46 44 43 43 43 44 45 47 49 50 51 50 48 47 46 45 45 46 46 46 46 46 46 46 46 46 48 49 50 51 53 55 56 58 59 61 62 63 64 64 64 64 63 62 62 62 61 61 60 59 56 54 53 52 52 51 51 51 52 52 53 53 53
26 27 29 32 34 35 35 35 35 35 38 41 42 43 42 41 42 42 44 45 46 45 44 42 42 43 44 45 47 49 50 50 49 48 46 45 44 44 45 45 45 45 44 44 44 45 46 46 47 48 49 50 51 52 54 55 56 57 58 58 58 58 58 58 57 57 56 54 54 53 52 52 50 49 49 49 50 51 51 51 52 53 53 53 53
27 28 30 32 34 35 35 35 36 37 41 43 43 42 42 42 43 44 45 46 45 43 42 42 42 43 45 47 48 49 49 48 46 45 44 43 43 43 43 44 43 43 43 43 43 44 45 45 45 46 46 47 48 49 50 51 52 53 54 54 54 53 52 52 51 51 50 49 48 47 46 45 45 46 47 48 49 50 50 51 52 52 53 53 52
28 28 30 33 34 35 36 36 38 41 44 44 43 42 42 43 44 46 47 45 43 42 42 42 43 44 46 48 48 48 46 45 44 43 42 42 42 42 42 42 42 41 42 42 42 42 43 43 43 43 44 44 44 45 45 46 47 48 49 49 48 47 46 46 46 46 46 45 44 43 42 41 43 45 47 48 49 49 49 50 50 50 50 51 51
28 29 30 32 35 36 37 38 41 44 44 43 42 42 43 45 46 47 44 42 41 42 42 42 44 46 47 47 46 45 43 42 41 41 40 40 40 40 40 40 40 40 40 40 41 41 41 41 41 41 41 41 41 41 41 41 42 43 43 42 41 40 40 40 41 40 40 40 39 39 39 40 42 44 45 46 46 46 46 47 47 46 47 48 48
27 28 29 31 34 36 38 41 43 44 43 42 42 43 45 47 47 44 42 41 41 41 42 43 45 46 46 46 44 42 41 40 39 39 39 39 39 39 39 39 39 39 39 39 39 39 39 39 39 38 38 38 38 37 37 37 37 37 37 37 37 37 37 37 36 35 35 35 36 37 38 39 40 41 42 42 42 43 43 43 44 44 44 45 45
27 28 30 31 34 37 40 41 42 42 41 42 43 45 47 46 44 42 41 41 41 41 43 45 46 46 45 43 41 40 39 38 38 38 38 38 38 38 38 37 38 38 38 38 38 38 38 37 37 37 36 36 35 35 35 34 35 35 35 35 35 35 35 35 35 34 34 35 36 37 38 38 39 39 40 40 40 41 42 42 42 43 43 44 44
27 29 30 32 35 38 39 40 40 40 41 42 45 46 46 44 42 41 40 40 41 42 44 45 45 45 43 41 40 38 37 37 37 37 37 37 37 36 36 36 37 37 37 37 37 37 37 36 36 35 34 34 33 33 33 33 33 33 33 34 34 34 34 34 34 35 36 36 38 39 40 41 42 42 42 42 42 42 42 42 43 43 43 44 45
28 30 32 34 37 37 38 39 39 40 41 44 46 45 44 42 41 41 40 40 41 43 44 44 44 42 40 39 37 36 36 36 36 36 36 36 35 35 35 35 36 36 36 36 36 36 36 35 34 34 33 32 31 31 31 31 31 32 32 32 32 33 34 34 35 36 37 39 40 41 43 44 45 45 45 46 46 45 45 45 45 46 46 46 47
29 31 34 34 36 36 37 38 38 40 43 45 45 43 42 41 41 40 40 40 42 43 43 43 41 40 38 36 36 35 35 35 34 34 34 34 34 34 35 35 35 35 35 35 35 35 34 33 33 32 31 30 30 29 29 29 30 30 30 31 31 32 33 34 36 37 39 41 42 43 45 46 47 48 48 49 49 49 49 49 49 49 49 49 50
30 33 34 33 35 36 36 38 39 42 44 44 44 42 41 41 41 40 41 41 42 43 42 41 39 38 36 35 34 34 34 34 33 33 33 33 33 33 34 34 34 34 34 34 34 34 33 33 32 32 31 29 29 28 28 29 29 29 30 30 31 31 32 34 35 37 39 41 43 45 46 48 49 50 50 50 51 51 51 52 52 52 52 52 52
31 32 33 33 35 36 37 39 41 43 44 43 43 41 40 41 40 40 41 41 42 42 41 39 37 36 35 34 34 33 33 33 32 32 32 32 33 33 33 33 33 34 34 34 34 34 33 33 32 31 30 29 28 28 28 28 28 29 30 30 30 31 31 32 33 35 36 38 40 42 44 46 48 49 49 50 51 51 52 52 52 52 53 53 53
30 31 32 33 35 36 38 41 42 43 43 42 42 41 40 41 40 40 41 41 41 41 39 38 35 34 33 33 33 32 32 32 32 32 32 32 33 33 33 33 33 33 33 33 33 33 33 33 32 31 29 29 28 28 28 29 29 29 30 30 31 31 31 32 32 33 34 34 35 36 37 39 41 43 44 45 46 48 49 50 50 51 51 51 51
29 31 32 33 35 37 39 41 42 43 43 42 41 40 40 40 40 40 41 40 40 39 38 36 34 33 32 32 32 31 31 31 31 31 32 32 32 32 32 32 32 32 32 33 33 33 33 32 31 30 30 29 29 29 29 30 30 30 30 31 31 32 33 33 32 32 32 33 33 34 34 35 36 37 38 38 39 41 42 43 43 44 44 44 45
30 31 32 34 35 37 39 41 42 43 42 41 41 40 40 40 40 40 40 39 38 37 35 34 32 32 31 31 31 31 30 30 30 31 31 31 32 31 32 32 31 32 32 32 32 32 32 32 31 30 30 29 30 30 30 31 31 31 31 31 32 33 33 33 33 32 32 32 33 33 33 33 34 34 35 35 36 36 37 37 37 38 39 40 41
31 32 33 34 36 38 40 42 43 42 42 41 40 40 39 40 40 40 40 39 37 36 34 32 31 31 31 30 30 30 30 30 30 31 31 31 31 31 31 31 31 31 31 31 31 31 31 31 31 31 30 30 30 31 31 32 32 32 32 32 33 33 34 33 33 32 32 32 32 32 32 32 32 33 33 33 33 34 35 35 35 35 37 38 39
32 33 34 35 37 39 41 42 42 41 40 40 39 39 39 40 40 40 39 37 36 34 33 31 31 30 30 30 30 30 30 30 30 30 30 31 31 31 31 30 30 30 30 31 31 31 31 31 31 31 31 31 31 31 32 32 33 33 33 33 33 33 34 34 33 33 32 31 31 31 31 31 31 32 32 32 32 33 34 34 34 34 35 36 37
34 34 35 36 37 40 41 42 41 40 39 39 39 39 39 39 40 39 37 36 34 33 32 31 30 29 29 29 29 29 29 29 29 30 30 30 30 30 30 30 30 30 30 30 30 30 31 31 31 31 31 32 32 32 33 33 33 34 34 35 35 34 34 33 33 32 31 30 30 29 29 29 30 31 31 32 33 33 33 33 34 34 35 36 36
35 35 36 37 38 40 42 42 40 39 38 38 38 38 38 39 38 37 36 34 33 32 31 30 29 29 29 28 28 29 29 29 29 29 30 30 30 30 30 30 30 30 30 30 30 30 30 31 31 31 31 32 32 32 33 34 34 34 34 36 37 36 35 34 33 32 31 30 29 28 28 28 28 29 30 31 32 32 33 33 34 34 34 35 35
36 36 37 37 39 41 42 41 40 38 38 38 38 38 38 38 37 36 34 33 32 30 29 29 28 28 28 28 28 28 28 29 29 29 30 30 30 30 30 30 30 30 30 30 30 30 30 31 31 31 31 32 32 33 33 34 34 34 34 36 38 38 37 36 35 34 32 31 31 30 29 28 27 28 29 29 30 31 32 33 34 34 34 34 33
36 37 37 38 40 42 42 41 39 37 37 37 37 37 37 37 36 34 33 31 30 29 28 28 27 27 27 27 27 28 28 29 29 29 30 30 30 30 30 30 30 30 30 31 31 31 31 31 32 32 32 32 32 33 34 34 34 34 34 36 38 39 38 37 36 35 34 33 33 32 31 30 29 28 28 28 29 30 31 32 33 34 34 33 32
36 37 38 39 41 42 42 40 37 37 37 36 37 37 37 36 34 33 32 30 29 28 27 27 27 27 27 27 27 28 28 28 29 29 29 30 30 30 30 30 30 30 30 31 31 31 31 31 32 33 33 32 32 33 34 34 34 34 34 37 38 38 38 37 36 36 34 33 33 33 33 32 32 31 29 28 29 30 31 31 32 33 33 33 32
36 37 38 40 42 43 41 38 37 36 36 36 36 36 35 35 33 32 30 29 28 27 27 27 26 26 26 27 27 27 28 28 29 29 29 29 30 30 30 30 30 30 30 31 31 31 31 31 32 33 33 32 32 32 34 35 35 35 35 37 39 38 37 36 35 35 35 34 33 33 34 33 33 33 32 30 30 31 32 32 31 31 31 31 31
35 37 39 40 42 42 39 37 36 35 35 35 35 35 34 33 32 30 29 28 27 26 26 26 26 26 26 27 27 27 28 28 28 29 29 29 29 29 30 30 30 30 30 30 31 31 31 31 32 32 33 32 31 32 33 35 35 35 36 38 39 38 37 36 35 35 35 35 33 33 34 35 35 34 33 32 32 33 34 33 32 31 31 31 30
35 37 39 41 42 41 37 35 35 34 34 34 34 34 33 32 30 29 27 27 26 26 26 25 25 26 26 27 27 27 27 28 28 28 28 28 28 29 29 30 30 30 30 30 30 31 30 31 31 31 32 32 31 31 33 34 35 35 36 37 39 39 38 36 35 34 35 35 34 33 33 35 35 35 34 33 33 34 35 35 34 34 33 33 32
36 37 39 41 41 39 36 34 34 33 33 33 33 33 32 30 29 27 26 26 25 25 25 25 25 26 26 26 27 27 27 27 27 27 28 28 28 29 29 30 30 30 30 30 30 31 30 30 31 31 31 31 31 31 32 33 34 34 35 37 38 39 38 36 36 35 35 35 35 34 33 33 35 35 34 34 34 34 36 36 35 36 37 36 33
37 39 41 42 40 37 34 33 33 33 33 33 32 32 30 29 28 26 26 25 25 25 25 24 25 25 26 26 26 27 27 27 27 27 27 28 29 29 30 30 31 31 31 30 31 32 31 31 31 31 30 30 31 31 31 32 33 33 34 35 37 38 37 37 36 36 36 36 35 34 33 32 33 35 35 35 34 34 36 37 37 38 38 36 34
39 41 42 41 39 35 33 33 32 32 32 32 32 31 29 28 27 25 25 25 24 24 24 24 25 25 25 26 26 26 26 26 27 27 28 29 30 30 31 31 31 32 31 31 31 32 32 31 31 31 31 31 31 32 32 31 32 32 33 34 36 37 37 37 38 37 37 37 35 35 34 31 31 32 34 35 35 35 35 37 39 39 38 36 34
41 42 42 40 37 34 33 32 32 31 31 32 31 29 28 27 26 25 24 24 24 24 24 24 25 25 25 25 26 26 26 27 27 28 28 29 31 31 32 32 32 32 32 32 32 32 33 32 31 31 31 31 32 33 33 32 31 32 33 33 34 35 36 37 38 38 37 37 36 35 34 32 30 31 32 33 35 35 35 37 38 38 36 33 33
42 42 42 39 36 34 33 32 31 31 31 31 30 28 27 26 25 24 23 23 24 23 24 24 24 25 25 25 25 26 27 27 28 29 29 30 31 32 32 32 33 33 32 32 32 32 33 32 32 32 32 32 33 33 33 33 32 33 33 34 34 34 35 36 38 38 37 37 36 35 34 32 31 31 31 32 33 34 35 37 36 34 33 33 34
42 42 41 37 35 33 32 31 31 31 30 30 29 27 26 25 25 24 23 23 23 23 24 24 24 25 25 25 26 27 28 29 29 30 30 31 32 32 32 33 33 33 33 32 32 33 33 33 33 33 33 33 34 34 33 33 34 34 34 34 34 34 34 36 38 38 37 36 36 36 35 34 33 32 32 32 33 34 35 36 35 35 36 39 40
42 41 39 36 34 32 31 31 31 30 30 29 28 26 25 24 24 23 22 22 23 23 23 24 24 25 25 26 26 27 28 29 30 31 32 32 33 33 33 33 33 33 33 33 33 34 35 35 35 35 35 35 35 35 34 33 34 35 35 35 35 35 35 36 37 38 37 36 36 36 36 36 35 35 34 34 34 34 34 35 36 37 39 41 41
41 40 38 35 33 31 30 30 30 30 29 28 27 26 24 24 24 23 22 22 22 23 24 24 25 26 26 27 27 28 29 30 31 32 33 33 34 34 34 34 34 34 34 34 34 35 37 38 38 38 37 37 37 37 36 34 34 36 36 35 35 35 35 36 37 36 36 36 36 37 37 38 38 37 36 36 35 34 34 34 35 37 38 40 42
39 38 36 33 32 30 29 29 29 29 29 27 27 26 24 23 23 23 22 22 23 24 24 24 25 26 27 28 28 28 29 30 31 33 33 34 35 35 35 35 35 35 36 36 36 38 38 39 41 40 39 39 39 39 38 37 36 37 36 36 36 36 36 36 36 35 35 36 38 38 38 38 38 38 37 37 36 35 35 34 35 36 38 39 41
38 37 34 32 31 29 29 28 28 29 28 27 26 26 24 23 23 23 22 22 23 24 25 25 26 27 28 29 29 30 30 31 32 33 34 34 35 36 36 36 36 37 38 38 39 40 40 41 43 42 42 41 40 39 40 40 40 39 38 38 38 37 36 36 36 36 37 38 39 39 38 38 38 37 37 36 35 34 34 34 34 35 37 38 39
37 35 33 31 30 29 28 27 27 28 28 27 27 26 25 24 23 22 22 23 24 25 26 26 27 28 28 29 30 30 32 32 32 33 34 35 35 36 37 37 36 38 39 40 41 41 41 42 44 43 43 43 41 39 39 41 41 40 38 38 37 36 36 35 35 36 37 39 40 40 39 38 37 37 37 36 36 35 34 35 35 36 37 38 39
35 34 32 30 29 28 27 26 27 28 27 27 27 26 25 24 24 23 22 23 24 26 26 27 28 29 29 30 31 31 32 33 34 34 35 35 35 36 37 38 38 39 41 41 42 42 42 43 45 45 45 44 43 41 40 41 41 41 41 39 37 36 36 36 36 36 38 39 39 38 37 36 35 36 36 37 37 36 36 36 36 36 38 39 40
34 32 31 29 28 28 27 26 26 27 27 27 27 27 26 26 24 23 22 23 25 27 27 28 29 29 30 31 32 32 33 34 35 35 36 36 36 35 36 37 39 41 42 43 44 44 44 45 46 47 47 46 45 44 42 41 41 42 43 42 40 38 38 38 38 39 40 40 39 38 36 35 35 35 36 37 37 37 37 37 36 37 38 39 40
Wind_Direction
250 253 256 257 257 258 261 264 267 271 274 276 278 280 282 284 286 287 289 290 290 291 293 294 294 294 295 296 296 296 296 296 297 298 298 298 297 296 293 290 288 287 286 286 285 286 285 285 285 285 284 284 284 284 284 284 284 284 284 283 283 283 282 282 281 281 280 279 278 276 275 274 272 272 272 271 270 269 268 267 267 266 266 266 266
251 253 255 256 258 261 265 269 272 275 277 279 280 283 287 289 290 291 292 292 291 291 292 292 293 294 295 296 295 296 296 297 298 298 298 298 296 294 291 289 289 288 288 287 287 287 286 286 285 285 285 284 284 284 284 284 284 284 284 284 284 283 282 282 281 281 280 280 279 278 277 276 274 272 271 270 271 270 269 268 267 266 265 265 264
251 252 255 257 260 263 267 271 274 277 278 280 284 287 290 291 291 292 291 289 288 289 290 291 293 294 296 297 298 299 299 299 299 299 298 297 295 292 290 291 291 290 290 291 290 289 289 288 287 286 286 285 285 285 285 285 285 285 284 284 284 284 283 282 282 282 281 281 281 280 279 279 277 275 272 270 270 270 269 267 267 266 265 265 264
249 252 255 258 261 264 267 271 274 277 280 284 288 290 292 292 291 290 288 287 288 290 292 294 295 297 299 300 301 301 301 300 299 298 297 294 292 292 292 292 292 292 292 292 291 291 291 290 290 289 289 288 288 288 288 287 287 286 286 286 285 285 285 284 283 283 283 283 282 282 281 281 280 279 276 274 272 270 269 269 267 266 265 265 264
248 252 255 258 261 263 266 270 276 280 285 288 290 293 295 294 293 290 289 290 291 293 295 297 298 300 301 302 302 301 300 299 298 297 294 292 292 292 292 292 292 292 291 291 290 290 290 289 289 289 289 289 289 289 289 288 288 288 287 287 287 286 286 286 285 285 285 285 285 284 283 282 281 280 280 279 276 273 272 271 270 268 267 265 264
249 253 256 258 260 262 267 273 280 286 290 293 295 298 299 297 294 293 292 292 293 295 296 298 300 301 302 302 302 301 300 299 297 296 294 293 293 292 292 291 290 289 289 288 288 288 288 288 288 288 288 288 288 288 288 288 288 288 287 288 287 287 287 287 286 286 285 285 285 285 284 283 282 281 281 282 280 278 276 274 273 272 271 268 266
250 253 255 259 261 263 269 276 282 288 293 297 299 299 298 297 296 295 294 294 295 296 298 299 301 302 302 302 301 300 299 298 297 296 295 294 294 292 291 290 289 287 286 285 285 284 284 285 285 286 286 286 287 287 287 287 287 288 288 288 288 288 287 287 287 287 286 286 285 284 283 282 282 282 282 283 282 280 279 277 276 275 274 272 270
252 255 257 260 263 266 270 275 282 289 295 297 297 297 298 298 298 295 294 294 295 297 299 301 302 303 303 302 301 299 298 297 296 296 295 294 293 292 291 290 289 287 285 284 283 282 282 282 282 282 282 283 284 284 285 285 286 286 286 287 287 287 287 288 288 288 287 287 286 284 283 282 282 282 282 282 282 281 280 280 278 276 275 274 273
257 259 262 263 263 265 268 274 283 290 294 295 295 298 299 297 295 292 292 292 294 295 298 300 302 302 302 301 299 298 297 296 296 295 295 294 293 292 291 290 288 287 286 284 283 283 282 281 281 281 280 281 281 282 282 283 283 283 284 284 284 285 285 286 286 286 286 286 286 285 284 282 282 282 282 281 281 282 281 280 279 278 276 275 274
261 262 263 263 261 262 268 276 283 287 289 292 295 298 297 294 291 290 289 290 291 293 297 299 301 301 300 299 297 296 295 295 295 294 294 293 293 291 290 289 288 287 286 285 284 283 283 282 282 282 281 281 281 281 281 281 281 281 282 282 282 282 282 283 283 283 283 283 284 284 283 282 281 281 281 280 279 280 280 280 279 278 276 275 275
264 264 262 260 260 262 268 274 279 284 288 291 294 296 294 291 289 289 289 289 291 294 297 299 300 300 299 297 296 295 295 295 294 294 294 293 292 291 290 289 288 288 287 286 285 284 284 284 283 283 283 282 282 281 281 281 280 280 280 280 280 280 280 280 280 280 281 281 281 281 281 280 279 279 278 278 278 278 278 278 278 277 276 275 275
264 263 262 260 260 262 266 271 277 282 287 291 294 295 295 292 291 290 290 291 293 296 298 300 300 299 298 297 296 296 296 296 296 296 295 294 294 293 292 291 290 289 289 288 287 286 286 286 285 285 284 283 283 282 282 281 281 280 279 279 279 278 278 278 278 279 279 279 279 279 280 279 279 277 277 276 276 276 276 275 276 276 276 275 274
266 265 265 264 263 264 266 270 276 281 287 291 295 297 296 294 292 291 291 292 294 297 300 300 299 298 297 297 296 296 297 297 297 296 296 295 294 294 293 293 292 291 291 291 290 289 288 288 287 287 286 286 285 285 285 284 283 282 281 281 280 279 279 278 278 279 278 278 279 279 278 278 277 277 276 276 275 275 274 274 274 273 274 274 273
268 270 270 270 267 266 268 271 276 281 287 292 296 297 295 292 291 290 292 294 297 299 299 298 297 297 297 297 297 298 298 298 297 297 296 295 295 294 294 294 293 293 292 292 292 292 291 290 290 290 289 289 289 288 287 286 285 284 284 283 282 281 281 280 280 280 279 278 277 277 276 275 275 275 275 274 273 273 273 273 272 271 271 272 272
270 273 273 271 268 268 268 270 275 280 288 294 296 294 292 290 291 292 294 296 298 298 298 297 297 297 297 298 299 299 299 299 298 297 296 295 295 295 294 294 294 293 293 292 293 293 293 293 293 293 292 292 291 290 289 288 287 286 285 284 283 282 281 281 280 280 279 278 277 275 274 274 274 274 273 272 271 271 271 270 270 269 269 269 269
276 277 274 270 267 266 266 268 274 282 290 295 294 292 291 291 293 295 297 298 298 297 297 297 297 298 299 299 300 299 299 298 297 296 295 295 295 294 294 294 293 293 293 293 294 294 295 295 295 295 294 294 293 292 292 290 289 289 288 287 286 284 282 281 281 281 280 280 279 278 276 275 274 273 272 271 269 268 268 267 267 267 267 267 266
279 278 274 270 267 265 265 269 277 286 292 293 291 291 292 294 295 297 297 297 297 296 296 297 298 299 300 300 300 299 298 296 295 294 294 294 294 294 293 293 292 293 293 294 295 295 295 296 296 296 296 296 295 295 294 293 292 291 290 290 289 287 285 284 284 283 283 282 281 279 278 276 275 273 271 269 267 265 264 264 263 263 264 265 266
277 277 274 272 270 268 270 274 281 288 290 290 290 292 294 295 296 297 296 296 296 296 297 297 298 300 300 300 299 298 296 295 294 294 294 294 293 293 292 292 292 292 293 294 295 295 295 296 296 297 297 297 298 298 297 296 294 293 292 292 292 290 289 287 286 285 285 284 283 281 278 275 273 271 268 266 264 263 262 261 261 262 263 265 266
274 274 273 273 272 271 273 279 284 287 288 289 291 293 294 295 296 296 295 296 296 297 298 299 300 301 301 300 298 297 295 294 293 294 294 293 293 292 292 292 293 293 294 295 295 295 295 296 296 297 298 299 299 299 299 298 296 295 295 294 294 293 291 290 289 288 286 285 282 279 276 274 271 269 267 266 265 264 263 263 263 264 265 266 267
272 272 271 270 271 273 278 282 285 286 287 289 292 293 295 295 295 295 296 296 298 298 299 301 302 302 301 299 298 296 295 294 294 294 294 293 293 292 292 293 293 294 294 294 294 294 295 295 296 297 298 299 300 301 301 300 299 298 296 295 294 293 292 291 289 287 284 281 279 277 275 274 273 272 271 270 269 268 267 266 266 266 266 267 268
271 270 270 270 274 278 282 284 285 286 288 291 293 295 295 295 295 296 297 298 299 300 301 302 302 301 300 299 297 296 295 295 294 294 294 294 293 293 293 293 293 293 294 293 294 294 294 294 295 296 297 299 300 301 301 301 300 298 297 295 294 293 291 289 287 284 281 278 276 275 274 274 274 274 274 274 273 272 271 270 269 268 267 268 268
271 271 273 277 280 283 284 284 285 288 290 293 295 296 296 296 296 297 298 299 300 301 302 302 301 300 299 297 296 294 294 294 294 294 295 294 294 294 294 294 294 293 294 294 294 294 294 294 294 295 296 297 298 300 301 301 301 300 298 297 295 292 291 288 286 283 280 278 276 274 274 273 273 273 273 274 274 274 274 273 272 271 270 269 270
274 275 279 282 283 283 284 285 287 290 293 295 296 296 296 296 297 297 298 299 301 302 302 301 300 299 298 296 294 294 294 294 295 295 295 295 295 295 295 294 294 294 294 294 294 294 294 293 293 294 294 296 298 300 302 302 302 301 300 298 296 293 290 288 285 283 280 278 277 275 274 273 273 272 273 273 274 275 275 274 272 271 270 269 269
277 279 282 283 283 285 285 287 290 292 295 296 297 297 296 296 297 297 299 300 302 302 302 301 300 298 297 295 294 294 294 295 296 296 296 296 295 295 295 295 295 295 295 295 294 294 293 293 293 294 296 298 300 302 302 303 302 301 300 298 297 295 292 290 287 285 282 280 279 277 276 275 275 274 274 274 274 274 274 273 272 270 269 268 268
280 281 283 284 286 288 288 290 293 295 296 297 297 297 296 296 297 297 299 301 302 302 302 301 300 298 296 294 294 294 295 297 298 298 298 297 296 296 296 296 296 296 295 295 295 294 294 295 296 297 299 301 302 302 302 301 300 299 298 297 296 295 293 291 289 288 286 285 283 282 280 278 277 277 276 275 274 274 273 272 271 270 270 269 268
281 283 286 288 289 290 291 293 295 296 297 297 296 296 295 295 296 298 300 302 303 303 301 300 299 297 295 294 294 295 297 298 299 299 299 298 298 298 297 297 297 297 296 296 296 296 296 297 298 300 301 302 302 301 300 299 298 297 297 296 295 294 292 291 290 290 290 289 288 286 284 283 281 280 279 278 277 276 274 273 273 272 272 272 271
284 287 289 291 292 293 295 296 297 297 298 297 295 295 295 296 297 300 302 303 303 302 301 300 298 296 294 294 295 296 298 299 300 300 300 299 299 299 299 299 299 298 298 298 298 298 298 299 300 301 302 302 301 300 299 298 296 296 295 295 294 293 292 291 291 291 290 289 289 288 287 286 285 284 283 282 281 279 278 276 275 275 274 273 272
287 289 292 294 295 297 299 299 299 298 297 296 295 295 296 297 299 302 303 303 302 301 300 299 297 295 295 295 296 298 299 300 301 301 301 300 300 300 300 300 300 300 300 300 300 300 300 300 301 301 301 301 300 299 298 296 295 295 294 293 292 292 292 292 292 291 290 289 289 289 289 288 287 286 285 284 283 281 280 278 277 275 274 273 271
287 291 293 295 298 300 301 300 299 298 296 295 295 295 297 299 301 303 303 303 303 301 300 299 297 296 296 297 298 300 301 302 302 302 302 301 301 301 301 302 302 302 302 302 302 301 301 301 301 301 300 299 299 297 296 295 295 294 293 292 292 292 292 292 292 291 291 291 290 289 289 288 287 286 285 283 282 281 279 277 276 274 273 272 271
287 291 292 295 299 301 302 301 299 296 295 294 295 296 298 300 302 303 304 303 303 302 301 299 298 297 297 298 300 301 301 302 302 303 303 303 303 303 303 304 304 304 303 303 302 302 302 301 301 300 300 298 297 296 295 295 294 293 292 291 290 291 291 292 292 292 293 292 292 291 289 288 287 285 283 281 279 278 277 276 274 272 271 270 269
288 290 291 294 298 301 302 300 297 295 294 294 295 297 299 301 303 303 304 304 303 302 301 299 298 297 298 299 300 301 302 303 303 303 304 304 305 305 305 305 305 305 304 304 303 303 302 302 301 300 299 298 297 296 295 294 293 293 293 291 290 290 290 290 290 291 292 291 290 289 287 286 285 284 283 281 280 278 276 275 273 272 270 269 269
288 288 289 293 296 300 302 299 296 294 294 294 295 298 300 302 303 303 304 304 303 302 301 299 297 297 297 299 300 301 302 303 304 305 305 306 307 306 306 306 306 306 305 304 304 303 303 302 301 301 300 298 297 296 295 294 293 293 293 292 291 291 291 292 292 292 291 290 288 286 284 282 282 282 281 281 281 280 279 277 274 272 271 270 270
286 286 289 292 296 300 301 298 295 293 293 295 296 299 301 302 303 304 303 303 303 301 299 297 296 297 298 299 301 302 303 305 305 306 307 307 307 307 307 307 306 306 305 304 304 303 303 302 301 300 299 298 298 296 295 294 294 293 292 291 290 291 293 294 295 295 294 292 290 288 286 283 281 280 279 280 280 279 278 278 277 276 274 273 272
284 287 290 292 297 301 300 297 294 293 294 296 298 300 302 303 303 303 303 303 302 300 299 297 297 298 299 301 303 304 305 306 307 307 308 308 308 307 307 307 307 306 305 305 304 304 303 302 301 300 299 298 297 296 295 294 294 293 292 290 290 291 293 294 295 294 294 293 292 290 288 286 283 280 278 278 277 277 276 276 277 277 278 277 276
286 288 290 293 298 300 299 295 292 293 294 297 299 301 302 303 303 303 303 303 302 300 299 298 298 300 302 304 305 305 306 307 307 308 308 308 308 307 307 307 307 306 306 305 305 304 304 303 301 300 299 298 298 296 295 294 294 293 292 290 290 291 293 294 294 294 293 292 291 289 288 286 284 282 280 278 276 275 274 274 275 276 277 278 277
288 289 290 294 298 299 296 293 291 293 295 298 300 302 302 303 303 303 303 303 302 300 299 299 301 303 304 305 305 306 306 307 308 308 308 308 308 307 307 307 307 307 307 306 306 305 304 303 301 300 300 299 298 297 296 294 294 293 292 291 291 292 293 294 294 294 293 291 289 288 287 286 284 283 283 281 280 277 276 274 274 274 275 275 275
289 289 291 296 299 298 294 291 291 293 296 299 301 302 302 302 303 303 304 303 302 301 301 301 303 304 305 305 305 306 307 307 308 309 308 308 307 307 307 307 308 308 308 307 307 306 305 304 303 301 300 300 299 297 295 294 294 293 292 292 292 293 294 294 294 293 292 290 288 287 286 285 284 283 283 282 281 279 278 277 275 273 272 271 271
290 291 294 298 300 297 292 290 292 295 297 299 301 301 302 302 303 304 304 304 303 302 302 303 304 304 305 305 305 306 307 307 308 308 307 307 306 306 307 307 308 308 307 307 306 306 306 305 304 303 302 301 300 297 295 294 294 294 293 293 293 293 294 294 294 292 290 289 288 286 285 284 284 283 282 281 279 278 278 278 277 275 272 269 268
293 294 297 300 300 295 291 291 293 296 299 300 301 302 302 302 304 305 305 304 303 302 302 303 304 304 304 305 305 306 307 307 307 307 306 306 305 306 306 306 307 307 307 306 306 306 306 306 305 304 303 303 302 299 296 296 296 295 294 294 293 293 294 294 293 291 289 288 287 286 285 284 284 284 282 280 278 278 277 276 275 274 272 271 271
296 297 300 302 299 294 291 292 294 297 300 301 301 302 302 303 304 305 304 303 302 302 303 304 304 304 305 305 305 306 306 306 306 305 305 305 305 305 306 306 306 306 306 306 305 305 306 306 305 304 304 303 302 301 299 298 298 297 296 294 294 294 295 294 292 291 289 288 288 287 286 284 283 283 283 282 280 277 276 276 275 273 272 273 274
298 300 302 301 297 293 291 293 295 298 300 301 302 302 302 303 304 304 304 303 303 303 304 304 304 304 304 304 305 305 305 305 304 304 304 304 305 305 306 306 305 305 305 306 305 305 305 305 304 304 303 302 301 301 300 300 300 299 297 295 294 295 295 294 292 291 291 290 290 289 288 286 283 281 281 281 279 276 275 274 274 275 276 277 277
300 302 302 299 295 292 292 293 295 299 301 301 301 301 302 303 303 303 303 303 303 304 304 303 303 303 303 303 303 303 303 303 303 304 304 304 305 305 306 306 305 305 305 305 305 304 305 305 304 303 302 301 300 300 300 300 299 298 297 296 295 296 295 294 293 293 292 292 292 290 289 288 285 282 280 279 278 277 275 273 273 275 277 277 276
301 302 300 297 293 291 292 293 296 299 301 301 300 300 301 301 302 303 303 302 302 303 302 302 302 301 301 302 302 302 303 303 303 304 304 304 304 304 305 305 304 304 304 304 304 303 304 304 304 303 302 300 299 299 300 300 299 297 296 296 296 295 295 294 294 294 294 294 293 292 290 288 285 282 279 278 277 276 275 273 273 272 269 266 263
301 300 298 295 292 291 292 293 296 299 300 300 299 298 299 300 301 302 301 300 300 301 301 300 300 300 300 300 301 301 302 302 303 303 304 304 304 304 304 304 303 303 303 303 303 303 303 303 303 303 301 300 299 299 299 299 298 297 296 295 295 295 294 293 293 295 296 296 295 294 292 289 285 283 280 277 275 274 273 273 271 268 265 264 263
300 299 296 292 290 291 291 292 295 298 298 298 297 297 298 299 299 300 299 298 299 299 299 298 298 298 299 299 300 301 301 302 303 303 304 305 304 303 303 303 302 302 301 301 302 302 302 302 302 302 301 300 300 300 299 298 297 296 295 295 295 294 293 292 292 294 296 296 295 293 291 289 287 285 283 280 278 277 275 273 271 269 269 269 268
299 296 293 290 290 290 290 292 295 296 297 296 295 295 296 296 297 297 297 297 297 297 297 297 297 297 298 299 300 300 301 302 302 303 304 304 303 303 303 302 301 301 300 301 301 302 302 302 301 301 300 300 300 300 300 298 296 295 295 295 294 293 292 291 292 293 294 293 291 289 288 288 287 287 285 284 283 282 279 276 273 270 269 268 268
297 294 291 289 289 289 290 292 294 295 296 295 294 293 294 294 294 295 296 295 295 295 295 295 295 296 297 298 299 300 300 301 302 302 303 303 303 302 302 302 301 300 300 301 301 301 301 301 300 300 300 299 299 300 300 299 297 296 297 296 294 293 293 293 292 292 291 289 287 286 286 287 287 287 286 285 284 283 281 279 276 273 270 268 267
295 292 290 289 289 289 290 292 293 294 295 294 292 292 292 292 293 294 295 294 293 293 294 294 294 295 296 298 299 300 300 301 301 301 301 302 302 302 301 301 301 300 300 301 301 301 301 300 300 300 300 299 299 299 299 298 298 297 297 295 295 295 295 295 294 292 290 288 287 287 287 288 288 288 287 286 284 282 279 277 275 272 271 269 267
293 291 289 289 289 288 290 292 293 294 294 293 291 290 291 292 292 293 294 293 292 292 293 293 293 295 296 297 298 300 300 300 301 301 300 301 301 301 301 301 300 300 300 301 301 301 301 300 299 299 299 298 298 297 296 294 294 294 293 292 293 293 293 291 290 288 286 285 285 286 287 289 290 289 288 286 284 281 278 276 273 270 268 266 264
292 290 290 290 288 288 290 292 291 292 293 292 290 290 290 292 293 294 294 293 291 291 292 293 294 295 296 297 299 299 300 301 301 301 301 300 300 300 300 301 301 300 300 301 301 300 300 299 299 298 298 297 297 296 294 293 293 293 293 293 294 293 292 290 289 287 285 285 285 287 288 288 287 286 285 284 283 282 280 278 275 273 270 268 266
291 290 290 289 288 289 290 291 291 292 292 291 290 290 291 292 293 295 295 294 292 291 291 293 295 296 297 298 299 299 300 301 301 301 301 301 300 300 299 300 301 301 301 302 302 302 301 301 300 300 299 298 298 297 296 294 293 294 295 296 297 296 295 294 294 292 291 292 293 294 292 289 286 284 282 282 282 281 280 279 277 275 273 272 270